,,Stat6,,Stat2,,Stat8,,Stat9,,Stat10,,Wind1,,Wind1,
time,status,PA1M_AVG,status,PR1M_SUM,status,RH1M_AVG,status,SR1M_AVG,status,TA1M_AVG,status,W1dAve1m,status,W1sAve1m,
2008-02-22, 00:00:00,VALID,918.664,VALID,0,VALID,100,VALID,-0.0339617,VALID,18.1668,VALID,120,VALID,1.06307,
2008-02-22, 00:01:00,VALID,918.666,VALID,0,VALID,100,VALID,-0.0339617,VALID,18.1733,VALID,127,VALID,0.943004,
2008-02-22, 00:02:00,VALID,918.668,VALID,0,VALID,100,VALID,-0.0169808,VALID,18.1641,VALID,125,VALID,0.912574,
2008-02-22, 00:03:00,VALID,918.657,VALID,0,VALID,100,VALID,-0.0169808,VALID,18.1675,VALID,118,VALID,0.954687,
2008-02-22, 00:04:00,VALID,918.66,VALID,0,VALID,100,VALID,-0.0169808,VALID,18.1636,VALID,116,VALID,1.15149,
2008-02-22, 00:05:00,VALID,918.647,VALID,0,VALID,100,VALID,-0.0339617,VALID,18.1636,VALID,108,VALID,0.900254,
2008-02-22, 00:06:00,VALID,918.622,VALID,0,VALID,100,VALID,0,VALID,18.1703,VALID,97,VALID,0.640625,
2008-02-22, 00:07:00,VALID,918.587,VALID,0,VALID,100,VALID,-0.0169808,VALID,18.1604,VALID,89,VALID,0.74256,
2008-02-22, 00:08:00,VALID,918.556,VALID,0,VALID,100,VALID,-0.0169808,VALID,18.1441,VALID,90,VALID,0.488636,
2008-02-22, 00:09:00,VALID,918.526,VALID,0,VALID,100,VALID,-0.0509425,VALID,18.1474,VALID,89,VALID,0,
2008-02-22, 00:10:00,VALID,918.508,VALID,0,VALID,100,VALID,-0.0169808,VALID,18.1539,VALID,89,VALID,0,
2008-02-22, 00:11:00,VALID,918.493,VALID,0,VALID,100,VALID,-0.0339617,VALID,18.1671,VALID,100,VALID,0,
2008-02-22, 00:12:00,VALID,918.47,VALID,0,VALID,100,VALID,-0.0509425,VALID,18.1738,VALID,118,VALID,0,
2008-02-22, 00:13:00,VALID,918.461,VALID,0,VALID,100,VALID,0,VALID,18.177,VALID,148,VALID,0,
2008-02-22, 00:14:00,VALID,918.439,VALID,0,VALID,100,VALID,-0.0169808,VALID,18.1766,VALID,175,VALID,0,
2008-02-22, 00:15:00,VALID,918.433,VALID,0,VALID,100,VALID,-0.0339617,VALID,18.1898,VALID,165,VALID,0,
2008-02-22, 00:16:00,VALID,918.427,VALID,0,VALID,100,VALID,0,VALID,18.1895,VALID,165,VALID,0,
2008-02-22, 00:17:00,VALID,918.416,VALID,0,VALID,100,VALID,-0.0169808,VALID,18.193,VALID,165,VALID,0,
2008-02-22, 00:18:00,VALID,918.393,VALID,0,VALID,100,VALID,-0.0169808,VALID,18.1831,VALID,155,VALID,0,
2008-02-22, 00:19:00,VALID,918.381,VALID,0,VALID,100,VALID,0,VALID,18.193,VALID,137,VALID,0,
2008-02-22, 00:20:00,VALID,918.377,VALID,0,VALID,100,VALID,-0.0849042,VALID,18.1668,VALID,120,VALID,0,
2008-02-22, 00:21:00,VALID,918.346,VALID,0,VALID,100,VALID,-0.0509425,VALID,18.161,VALID,110,VALID,0,
2008-02-22, 00:22:00,VALID,918.323,VALID,0,VALID,100,VALID,-0.0679233,VALID,18.1708,VALID,110,VALID,0,
2008-02-22, 00:23:00,VALID,918.302,VALID,0,VALID,100,VALID,-0.0509425,VALID,18.18,VALID,117,VALID,0,
2008-02-22, 00:24:00,VALID,918.28,VALID,0,VALID,100,VALID,-0.0509425,VALID,18.18,VALID,127,VALID,0,
2008-02-22, 00:25:00,VALID,918.264,VALID,0,VALID,100,VALID,-0.0509425,VALID,18.1865,VALID,119,VALID,0,
2008-02-22, 00:26:00,VALID,918.275,VALID,0,VALID,100,VALID,0,VALID,18.1833,VALID,104,VALID,0,
2008-02-22, 00:27:00,VALID,918.26,VALID,0,VALID,100,VALID,-0.0509425,VALID,18.1634,VALID,104,VALID,0,
2008-02-22, 00:28:00,VALID,918.259,VALID,0,VALID,100,VALID,0,VALID,18.1705,VALID,105,VALID,0,
2008-02-22, 00:29:00,VALID,918.235,VALID,0,VALID,100,VALID,-0.0169808,VALID,18.1606,VALID,112,VALID,0,
2008-02-22, 00:30:00,VALID,918.235,VALID,0,VALID,100,VALID,-0.0679233,VALID,18.1509,VALID,110,VALID,0,
2008-02-22, 00:31:00,VALID,918.23,VALID,0,VALID,100,VALID,-0.0509425,VALID,18.1513,VALID,116,VALID,0,
2008-02-22, 00:32:00,VALID,918.234,VALID,0,VALID,100,VALID,-0.0339617,VALID,18.1351,VALID,116,VALID,0,
2008-02-22, 00:33:00,VALID,918.23,VALID,0,VALID,100,VALID,-0.0509425,VALID,18.1416,VALID,120,VALID,0,
2008-02-22, 00:34:00,VALID,918.208,VALID,0,VALID,100,VALID,0,VALID,18.1349,VALID,123,VALID,0,
2008-02-22, 00:35:00,VALID,918.206,VALID,0,VALID,100,VALID,-0.0169808,VALID,18.1316,VALID,112,VALID,0,
2008-02-22, 00:36:00,VALID,918.201,VALID,0,VALID,100,VALID,-0.0509425,VALID,18.1314,VALID,117,VALID,0,
2008-02-22, 00:37:00,VALID,918.185,VALID,0,VALID,100,VALID,-0.0169808,VALID,18.1184,VALID,127,VALID,0,
2008-02-22, 00:38:00,VALID,918.175,VALID,0,VALID,100,VALID,-0.0169808,VALID,18.1189,VALID,105,VALID,0,
2008-02-22, 00:39:00,VALID,918.18,VALID,0,VALID,100,VALID,-0.0339617,VALID,18.102,VALID,111,VALID,0,
2008-02-22, 00:40:00,VALID,918.166,VALID,0,VALID,100,VALID,-0.0339617,VALID,18.0892,VALID,111,VALID,0,
2008-02-22, 00:41:00,VALID,918.15,VALID,0,VALID,100,VALID,0,VALID,18.096,VALID,103,VALID,0,
2008-02-22, 00:42:00,VALID,918.148,VALID,0,VALID,100,VALID,-0.0509425,VALID,18.0899,VALID,92,VALID,0,
2008-02-22, 00:43:00,VALID,918.138,VALID,0,VALID,100,VALID,-0.0679233,VALID,18.0696,VALID,92,VALID,0,
2008-02-22, 00:44:00,VALID,918.122,VALID,0,VALID,100,VALID,-0.0339617,VALID,18.0633,VALID,92,VALID,0,
2008-02-22, 00:45:00,VALID,918.107,VALID,0,VALID,100,VALID,0,VALID,18.0406,VALID,92,VALID,0,
2008-02-22, 00:46:00,VALID,918.103,VALID,0,VALID,100,VALID,-0.0339617,VALID,18.0311,VALID,92,VALID,0,
2008-02-22, 00:47:00,VALID,918.1,VALID,0,VALID,100,VALID,0,VALID,18.0413,VALID,92,VALID,0,
2008-02-22, 00:48:00,VALID,918.089,VALID,0,VALID,100,VALID,-0.101885,VALID,18.0316,VALID,94,VALID,0,
2008-02-22, 00:49:00,VALID,918.069,VALID,0,VALID,100,VALID,-0.0509425,VALID,18.0316,VALID,94,VALID,0,
2008-02-22, 00:50:00,VALID,918.06,VALID,0,VALID,100,VALID,-0.0339617,VALID,18.0279,VALID,94,VALID,0,
2008-02-22, 00:51:00,VALID,918.042,VALID,0,VALID,100,VALID,-0.0339617,VALID,18.0443,VALID,94,VALID,0,
2008-02-22, 00:52:00,VALID,918.058,VALID,0,VALID,100,VALID,-0.0169808,VALID,18.0374,VALID,95,VALID,0,
2008-02-22, 00:53:00,VALID,918.063,VALID,0,VALID,100,VALID,-0.0169808,VALID,18.0406,VALID,95,VALID,0,
2008-02-22, 00:54:00,VALID,918.066,VALID,0,VALID,100,VALID,-0.0339617,VALID,18.0469,VALID,95,VALID,0,
2008-02-22, 00:55:00,VALID,918.065,VALID,0,VALID,100,VALID,-0.0509425,VALID,18.077,VALID,95,VALID,0,
2008-02-22, 00:56:00,VALID,918.057,VALID,0,VALID,100,VALID,-0.0169808,VALID,18.0728,VALID,95,VALID,0,
2008-02-22, 00:57:00,VALID,918.056,VALID,0,VALID,100,VALID,-0.0509425,VALID,18.086,VALID,95,VALID,0,
2008-02-22, 00:58:00,VALID,918.055,VALID,0,VALID,100,VALID,0,VALID,18.0858,VALID,95,VALID,0,
2008-02-22, 00:59:00,VALID,918.05,VALID,0,VALID,100,VALID,-0.0509425,VALID,18.0895,VALID,96,VALID,0,
2008-02-22, 01:00:00,VALID,918.05,VALID,0,VALID,100,VALID,-0.0339617,VALID,18.0962,VALID,99,VALID,0,
2008-02-22, 01:01:00,VALID,918.05,VALID,0,VALID,100,VALID,-0.0339617,VALID,18.1156,VALID,99,VALID,0,
2008-02-22, 01:02:00,VALID,918.034,VALID,0,VALID,100,VALID,-0.0339617,VALID,18.102,VALID,99,VALID,0,
2008-02-22, 01:03:00,VALID,918.02,VALID,0,VALID,100,VALID,0,VALID,18.1022,VALID,99,VALID,0,
2008-02-22, 01:04:00,VALID,917.985,VALID,0,VALID,100,VALID,-0.0679233,VALID,18.0895,VALID,99,VALID,0,
2008-02-22, 01:05:00,VALID,917.967,VALID,0,VALID,100,VALID,0,VALID,18.0795,VALID,99,VALID,0,
2008-02-22, 01:06:00,VALID,917.94,VALID,0,VALID,100,VALID,-0.0509425,VALID,18.0765,VALID,99,VALID,0,
2008-02-22, 01:07:00,VALID,917.928,VALID,0,VALID,100,VALID,0,VALID,18.0628,VALID,99,VALID,0,
2008-02-22, 01:08:00,VALID,917.925,VALID,0,VALID,100,VALID,-0.0169808,VALID,18.0601,VALID,99,VALID,0,
2008-02-22, 01:09:00,VALID,917.911,VALID,0,VALID,100,VALID,-0.0509425,VALID,18.0309,VALID,95,VALID,0,
2008-02-22, 01:10:00,VALID,917.906,VALID,0,VALID,100,VALID,-0.0169808,VALID,17.9987,VALID,87,VALID,0,
2008-02-22, 01:11:00,VALID,917.894,VALID,0,VALID,100,VALID,-0.0339617,VALID,17.9598,VALID,86,VALID,0,
2008-02-22, 01:12:00,VALID,917.864,VALID,0,VALID,100,VALID,-0.0679233,VALID,17.947,VALID,86,VALID,0,
2008-02-22, 01:13:00,VALID,917.842,VALID,0,VALID,100,VALID,-0.0509425,VALID,17.9338,VALID,86,VALID,0,
2008-02-22, 01:14:00,VALID,917.811,VALID,0,VALID,100,VALID,-0.0339617,VALID,17.9276,VALID,86,VALID,0.467507,
2008-02-22, 01:15:00,VALID,917.796,VALID,0,VALID,100,VALID,-0.0509425,VALID,17.9113,VALID,86,VALID,0.847098,
2008-02-22, 01:16:00,VALID,917.77,VALID,0,VALID,100,VALID,-0.0339617,VALID,17.9144,VALID,86,VALID,0.660247,
2008-02-22, 01:17:00,VALID,917.751,VALID,0,VALID,100,VALID,0,VALID,17.9236,VALID,86,VALID,0.0855741,
2008-02-22, 01:18:00,VALID,917.723,VALID,0,VALID,100,VALID,-0.0339617,VALID,17.9139,VALID,86,VALID,0,
2008-02-22, 01:19:00,VALID,917.709,VALID,0,VALID,100,VALID,-0.0509425,VALID,17.9241,VALID,86,VALID,0,
2008-02-22, 01:20:00,VALID,917.69,VALID,0,VALID,100,VALID,-0.0169808,VALID,17.9139,VALID,86,VALID,0,
2008-02-22, 01:21:00,VALID,917.669,VALID,0,VALID,100,VALID,0,VALID,17.9107,VALID,84,VALID,0,
2008-02-22, 01:22:00,VALID,917.659,VALID,0,VALID,100,VALID,-0.0169808,VALID,17.891,VALID,75,VALID,0,
2008-02-22, 01:23:00,VALID,917.623,VALID,0,VALID,100,VALID,-0.0169808,VALID,17.8919,VALID,75,VALID,0,
2008-02-22, 01:24:00,VALID,917.612,VALID,0,VALID,100,VALID,-0.0169808,VALID,17.875,VALID,75,VALID,0,
2008-02-22, 01:25:00,VALID,917.599,VALID,0,VALID,100,VALID,-0.0169808,VALID,17.8822,VALID,75,VALID,0,
2008-02-22, 01:26:00,VALID,917.587,VALID,0,VALID,100,VALID,-0.0509425,VALID,17.8947,VALID,75,VALID,0,
2008-02-22, 01:27:00,VALID,917.562,VALID,0,VALID,100,VALID,-0.0339617,VALID,17.9181,VALID,75,VALID,0,
2008-02-22, 01:28:00,VALID,917.547,VALID,0,VALID,100,VALID,-0.0339617,VALID,17.8945,VALID,75,VALID,0,
2008-02-22, 01:29:00,VALID,917.536,VALID,0,VALID,100,VALID,-0.0509425,VALID,17.8752,VALID,75,VALID,0,
2008-02-22, 01:30:00,VALID,917.523,VALID,0,VALID,100,VALID,-0.0339617,VALID,17.872,VALID,75,VALID,0,
2008-02-22, 01:31:00,VALID,917.51,VALID,0,VALID,100,VALID,0,VALID,17.8683,VALID,75,VALID,0,
2008-02-22, 01:32:00,VALID,917.486,VALID,0,VALID,100,VALID,0,VALID,17.8718,VALID,80,VALID,0,
2008-02-22, 01:33:00,VALID,917.473,VALID,0,VALID,100,VALID,-0.0339617,VALID,17.888,VALID,88,VALID,0,
2008-02-22, 01:34:00,VALID,917.462,VALID,0,VALID,100,VALID,-0.0339617,VALID,17.9014,VALID,118,VALID,0.551883,
2008-02-22, 01:35:00,VALID,917.448,VALID,0,VALID,100,VALID,-0.0509425,VALID,17.9271,VALID,134,VALID,1.06479,
2008-02-22, 01:36:00,VALID,917.448,VALID,0,VALID,100,VALID,-0.0339617,VALID,17.9463,VALID,144,VALID,0.975818,
2008-02-22, 01:37:00,VALID,917.443,VALID,0,VALID,100,VALID,-0.0169808,VALID,17.966,VALID,143,VALID,1.03214,
2008-02-22, 01:38:00,VALID,917.417,VALID,0,VALID,100,VALID,0,VALID,17.9883,VALID,146,VALID,0.357279,
2008-02-22, 01:39:00,VALID,917.401,VALID,0,VALID,100,VALID,0,VALID,17.9982,VALID,140,VALID,0.954033,
2008-02-22, 01:40:00,VALID,917.371,VALID,0,VALID,100,VALID,0,VALID,18.0079,VALID,134,VALID,0.78995,
2008-02-22, 01:41:00,VALID,917.348,VALID,0,VALID,100,VALID,-0.0169808,VALID,18.0142,VALID,135,VALID,0.391352,
2008-02-22, 01:42:00,VALID,917.312,VALID,0,VALID,100,VALID,-0.0169808,VALID,18.0174,VALID,152,VALID,0.882241,
2008-02-22, 01:43:00,VALID,917.298,VALID,0,VALID,100,VALID,0.0679233,VALID,18.0228,VALID,143,VALID,0.918064,
2008-02-22, 01:44:00,VALID,917.264,VALID,0,VALID,100,VALID,0.0849042,VALID,18.023,VALID,140,VALID,1.12731,
2008-02-22, 01:45:00,VALID,917.232,VALID,0,VALID,100,VALID,0.0509425,VALID,18.0135,VALID,144,VALID,0.84668,
2008-02-22, 01:46:00,VALID,917.213,VALID,0,VALID,100,VALID,0.0509425,VALID,18.0133,VALID,148,VALID,0.0893674,
2008-02-22, 01:47:00,VALID,917.194,VALID,0,VALID,100,VALID,0.0679233,VALID,18.0235,VALID,144,VALID,0,
2008-02-22, 01:48:00,VALID,917.184,VALID,0,VALID,100,VALID,0.0169808,VALID,18.0003,VALID,134,VALID,0,
2008-02-22, 01:49:00,VALID,917.175,VALID,0,VALID,100,VALID,0.0169808,VALID,17.9809,VALID,132,VALID,0,
2008-02-22, 01:50:00,VALID,917.167,VALID,0,VALID,100,VALID,0.0509425,VALID,17.9619,VALID,130,VALID,0,
2008-02-22, 01:51:00,VALID,917.151,VALID,0,VALID,100,VALID,0.0679233,VALID,17.9452,VALID,117,VALID,0,
2008-02-22, 01:52:00,VALID,917.139,VALID,0,VALID,100,VALID,0.0339617,VALID,17.9487,VALID,123,VALID,0,
2008-02-22, 01:53:00,VALID,917.137,VALID,0,VALID,100,VALID,0.0339617,VALID,17.945,VALID,129,VALID,0,
2008-02-22, 01:54:00,VALID,917.134,VALID,0,VALID,100,VALID,0,VALID,17.9589,VALID,136,VALID,0,
2008-02-22, 01:55:00,VALID,917.137,VALID,0,VALID,100,VALID,0.0509425,VALID,17.9389,VALID,140,VALID,0.285689,
2008-02-22, 01:56:00,VALID,917.133,VALID,0,VALID,100,VALID,0.0339617,VALID,17.9355,VALID,139,VALID,1.02753,
2008-02-22, 01:57:00,VALID,917.118,VALID,0,VALID,100,VALID,0.0509425,VALID,17.932,VALID,142,VALID,1.18099,
2008-02-22, 01:58:00,VALID,917.117,VALID,0,VALID,100,VALID,0.0169808,VALID,17.9227,VALID,138,VALID,1.09449,
2008-02-22, 01:59:00,VALID,917.122,VALID,0,VALID,100,VALID,0.0679233,VALID,17.9095,VALID,137,VALID,0.972284,
2008-02-22, 02:00:00,VALID,917.115,VALID,0,VALID,100,VALID,0.0169808,VALID,17.9104,VALID,123,VALID,0.690341,
2008-02-22, 02:01:00,VALID,917.099,VALID,0,VALID,100,VALID,0.0339617,VALID,17.8739,VALID,119,VALID,0.284884,
2008-02-22, 02:02:00,VALID,917.089,VALID,0,VALID,100,VALID,0.0679233,VALID,17.8676,VALID,120,VALID,0.392912,
2008-02-22, 02:03:00,VALID,917.064,VALID,0,VALID,100,VALID,0.0679233,VALID,17.8609,VALID,126,VALID,0.87429,
2008-02-22, 02:04:00,VALID,917.04,VALID,0,VALID,100,VALID,0,VALID,17.8414,VALID,123,VALID,0.822976,
2008-02-22, 02:05:00,VALID,917.016,VALID,0,VALID,100,VALID,0.0339617,VALID,17.8289,VALID,127,VALID,0.753634,
2008-02-22, 02:06:00,VALID,916.998,VALID,0,VALID,100,VALID,0.0509425,VALID,17.809,VALID,125,VALID,0.84811,
2008-02-22, 02:07:00,VALID,916.979,VALID,0,VALID,100,VALID,0.0169808,VALID,17.806,VALID,120,VALID,0.843936,
2008-02-22, 02:08:00,VALID,916.981,VALID,0,VALID,100,VALID,0.0339617,VALID,17.7963,VALID,118,VALID,0.890039,
2008-02-22, 02:09:00,VALID,916.987,VALID,0,VALID,100,VALID,0.0339617,VALID,17.7829,VALID,113,VALID,0.663368,
2008-02-22, 02:10:00,VALID,916.982,VALID,0,VALID,100,VALID,0.0339617,VALID,17.7835,VALID,111,VALID,0.467634,
2008-02-22, 02:11:00,VALID,916.977,VALID,0,VALID,100,VALID,0.0509425,VALID,17.7604,VALID,109,VALID,0.0548611,
2008-02-22, 02:12:00,VALID,916.977,VALID,0,VALID,100,VALID,0.0509425,VALID,17.7541,VALID,109,VALID,0,
2008-02-22, 02:13:00,VALID,916.949,VALID,0,VALID,100,VALID,0.0509425,VALID,17.7442,VALID,109,VALID,0,
2008-02-22, 02:14:00,VALID,916.939,VALID,0,VALID,100,VALID,0.0169808,VALID,17.7574,VALID,109,VALID,0,
2008-02-22, 02:15:00,VALID,916.932,VALID,0,VALID,100,VALID,0.0509425,VALID,17.7574,VALID,109,VALID,0,
2008-02-22, 02:16:00,VALID,916.921,VALID,0,VALID,100,VALID,0.0339617,VALID,17.7476,VALID,109,VALID,0,
2008-02-22, 02:17:00,VALID,916.905,VALID,0,VALID,100,VALID,0.0339617,VALID,17.7375,VALID,109,VALID,0,
2008-02-22, 02:18:00,VALID,916.906,VALID,0,VALID,100,VALID,0.0169808,VALID,17.7476,VALID,109,VALID,0,
2008-02-22, 02:19:00,VALID,916.898,VALID,0,VALID,100,VALID,0.0509425,VALID,17.7671,VALID,109,VALID,0,
2008-02-22, 02:20:00,VALID,916.926,VALID,0,VALID,100,VALID,0.0169808,VALID,17.7833,VALID,14,VALID,0,
2008-02-22, 02:21:00,VALID,916.936,VALID,0,VALID,100,VALID,0.0169808,VALID,17.8123,VALID,303,VALID,0,
2008-02-22, 02:22:00,VALID,916.943,VALID,0,VALID,100,VALID,0.0509425,VALID,17.8319,VALID,303,VALID,0,
2008-02-22, 02:23:00,VALID,916.949,VALID,0,VALID,100,VALID,0.0169808,VALID,17.8354,VALID,303,VALID,0,
2008-02-22, 02:24:00,VALID,916.952,VALID,0,VALID,100,VALID,0,VALID,17.8417,VALID,303,VALID,0,
2008-02-22, 02:25:00,VALID,916.96,VALID,0,VALID,100,VALID,0.0169808,VALID,17.8482,VALID,303,VALID,0,
2008-02-22, 02:26:00,VALID,916.964,VALID,0,VALID,100,VALID,0.0339617,VALID,17.8551,VALID,303,VALID,0,
2008-02-22, 02:27:00,VALID,916.958,VALID,0,VALID,100,VALID,0.0169808,VALID,17.8609,VALID,303,VALID,0,
2008-02-22, 02:28:00,VALID,916.965,VALID,0,VALID,100,VALID,0,VALID,17.8782,VALID,304,VALID,0,
2008-02-22, 02:29:00,VALID,916.95,VALID,0,VALID,100,VALID,-0.0169808,VALID,17.8486,VALID,306,VALID,0,
2008-02-22, 02:30:00,VALID,916.94,VALID,0,VALID,100,VALID,0,VALID,17.8298,VALID,310,VALID,0,
2008-02-22, 02:31:00,VALID,916.935,VALID,0,VALID,100,VALID,-0.0339617,VALID,17.8071,VALID,310,VALID,0,
2008-02-22, 02:32:00,VALID,916.933,VALID,0,VALID,100,VALID,0,VALID,17.8166,VALID,313,VALID,0,
2008-02-22, 02:33:00,VALID,916.916,VALID,0,VALID,100,VALID,-0.0509425,VALID,17.8428,INVALID,360,VALID,0,
2008-02-22, 02:34:00,VALID,916.919,VALID,0,VALID,100,VALID,0,VALID,17.8687,INVALID,360,VALID,0,
2008-02-22, 02:35:00,VALID,916.92,VALID,0,VALID,100,VALID,0,VALID,17.8785,VALID,334,VALID,0,
2008-02-22, 02:36:00,VALID,916.927,VALID,0,VALID,100,VALID,0,VALID,17.8616,INVALID,360,VALID,0,
2008-02-22, 02:37:00,VALID,916.936,VALID,0,VALID,100,VALID,0.0169808,VALID,17.8653,INVALID,360,VALID,0,
2008-02-22, 02:38:00,VALID,916.935,VALID,0,VALID,100,VALID,-0.0169808,VALID,17.8685,INVALID,360,VALID,0,
2008-02-22, 02:39:00,VALID,916.935,VALID,0,VALID,100,VALID,0,VALID,17.8687,VALID,333,VALID,0,
2008-02-22, 02:40:00,VALID,916.948,VALID,0,VALID,100,VALID,0,VALID,17.8815,VALID,333,VALID,0,
2008-02-22, 02:41:00,VALID,916.969,VALID,0,VALID,100,VALID,0,VALID,17.8685,VALID,290,VALID,0,
2008-02-22, 02:42:00,VALID,916.988,VALID,0,VALID,100,VALID,-0.0339617,VALID,17.8525,VALID,279,VALID,0,
2008-02-22, 02:43:00,VALID,916.988,VALID,0,VALID,100,VALID,0,VALID,17.8426,VALID,279,VALID,0,
2008-02-22, 02:44:00,VALID,916.988,VALID,0,VALID,100,VALID,0.0169808,VALID,17.8264,VALID,279,VALID,0,
2008-02-22, 02:45:00,VALID,916.973,VALID,0,VALID,100,VALID,-0.0169808,VALID,17.8396,VALID,279,VALID,0,
2008-02-22, 02:46:00,VALID,916.986,VALID,0,VALID,100,VALID,0,VALID,17.8396,VALID,279,VALID,0,
2008-02-22, 02:47:00,VALID,916.995,VALID,0,VALID,100,VALID,-0.0169808,VALID,17.8488,VALID,279,VALID,0,
2008-02-22, 02:48:00,VALID,917.029,VALID,0,VALID,100,VALID,0.0339617,VALID,17.8521,VALID,279,VALID,0,
2008-02-22, 02:49:00,VALID,917.059,VALID,0,VALID,100,VALID,0,VALID,17.8588,VALID,241,VALID,0,
2008-02-22, 02:50:00,VALID,917.077,VALID,0,VALID,100,VALID,0,VALID,17.8458,VALID,234,VALID,0,
2008-02-22, 02:51:00,VALID,917.1,VALID,0,VALID,100,VALID,0,VALID,17.8328,VALID,233,VALID,0,
2008-02-22, 02:52:00,VALID,917.131,VALID,0,VALID,100,VALID,0,VALID,17.8132,VALID,229,VALID,0.603871,
2008-02-22, 02:53:00,VALID,917.134,VALID,0,VALID,100,VALID,0,VALID,17.8205,VALID,226,VALID,0.534412,
2008-02-22, 02:54:00,VALID,917.152,VALID,0,VALID,100,VALID,-0.0169808,VALID,17.8101,VALID,215,VALID,0,
2008-02-22, 02:55:00,VALID,917.143,VALID,0,VALID,100,VALID,-0.0339617,VALID,17.8264,VALID,208,VALID,0,
2008-02-22, 02:56:00,VALID,917.153,VALID,0,VALID,100,VALID,-0.0169808,VALID,17.8261,VALID,202,VALID,0,
2008-02-22, 02:57:00,VALID,917.157,VALID,0,VALID,100,VALID,0.0169808,VALID,17.8363,VALID,202,VALID,0,
2008-02-22, 02:58:00,VALID,917.159,VALID,0,VALID,100,VALID,-0.0339617,VALID,17.8525,VALID,207,VALID,0.433694,
2008-02-22, 02:59:00,VALID,917.168,VALID,0,VALID,100,VALID,0,VALID,17.8653,VALID,208,VALID,0.16654,
2008-02-22, 03:00:00,VALID,917.157,VALID,0,VALID,100,VALID,-0.0169808,VALID,17.888,VALID,212,VALID,0.233665,
2008-02-22, 03:01:00,VALID,917.156,VALID,0,VALID,100,VALID,0,VALID,17.904,VALID,233,VALID,0.222356,
2008-02-22, 03:02:00,VALID,917.141,VALID,0,VALID,100,VALID,0,VALID,17.9236,VALID,234,VALID,0.456555,
2008-02-22, 03:03:00,VALID,917.148,VALID,0,VALID,100,VALID,0,VALID,17.9303,VALID,238,VALID,0.17016,
2008-02-22, 03:04:00,VALID,917.148,VALID,0,VALID,100,VALID,0,VALID,17.9466,VALID,247,VALID,0.0893895,
2008-02-22, 03:05:00,VALID,917.144,VALID,0,VALID,100,VALID,-0.0169808,VALID,17.9496,VALID,247,VALID,0.745536,
2008-02-22, 03:06:00,VALID,917.124,VALID,0,VALID,100,VALID,-0.0169808,VALID,17.9625,VALID,237,VALID,0.00920139,
2008-02-22, 03:07:00,VALID,917.122,VALID,0,VALID,100,VALID,-0.0679233,VALID,17.979,VALID,279,VALID,0.291243,
2008-02-22, 03:08:00,VALID,917.13,VALID,0,VALID,100,VALID,-0.0339617,VALID,18.0049,VALID,293,VALID,0.00247713,
2008-02-22, 03:09:00,VALID,917.134,VALID,0,VALID,100,VALID,-0.0169808,VALID,18.0177,VALID,321,VALID,0,
2008-02-22, 03:10:00,VALID,917.125,VALID,0,VALID,100,VALID,0.0169808,VALID,17.9852,VALID,347,VALID,0,
2008-02-22, 03:11:00,VALID,917.138,VALID,0,VALID,100,VALID,-0.0169808,VALID,17.9982,VALID,1,VALID,0.593349,
2008-02-22, 03:12:00,VALID,917.15,VALID,0,VALID,100,VALID,-0.0169808,VALID,17.9792,VALID,17,VALID,0.929865,
2008-02-22, 03:13:00,VALID,917.143,VALID,0,VALID,100,VALID,0,VALID,17.9852,VALID,18,VALID,0.509718,
2008-02-22, 03:14:00,VALID,917.163,VALID,0,VALID,100,VALID,-0.0169808,VALID,17.9723,VALID,18,VALID,0.301669,
2008-02-22, 03:15:00,VALID,917.165,VALID,0,VALID,100,VALID,-0.0509425,VALID,17.9887,VALID,18,VALID,0.437891,
2008-02-22, 03:16:00,VALID,917.177,VALID,0,VALID,100,VALID,-0.0339617,VALID,18.0047,VALID,18,VALID,0.00962936,
2008-02-22, 03:17:00,VALID,917.17,VALID,0,VALID,100,VALID,-0.0509425,VALID,18.0114,VALID,18,VALID,0,
2008-02-22, 03:18:00,VALID,917.165,VALID,0,VALID,100,VALID,-0.0169808,VALID,18.0378,VALID,18,VALID,0,
2008-02-22, 03:19:00,VALID,917.157,VALID,0,VALID,100,VALID,0,VALID,18.0246,VALID,28,VALID,0.504764,
2008-02-22, 03:20:00,VALID,917.146,VALID,0,VALID,100,VALID,-0.0679233,VALID,17.9822,VALID,44,VALID,0.809896,
2008-02-22, 03:21:00,VALID,917.143,VALID,0,VALID,100,VALID,0,VALID,17.9593,VALID,53,VALID,0.755716,
2008-02-22, 03:22:00,VALID,917.132,VALID,0,VALID,100,VALID,0,VALID,17.9169,VALID,53,VALID,0.564546,
2008-02-22, 03:23:00,VALID,917.127,VALID,0,VALID,100,VALID,-0.0339617,VALID,17.8977,VALID,53,VALID,0.630035,
2008-02-22, 03:24:00,VALID,917.108,VALID,0,VALID,100,VALID,-0.0169808,VALID,17.8912,VALID,53,VALID,0.0864955,
2008-02-22, 03:25:00,VALID,917.118,VALID,0,VALID,100,VALID,0,VALID,17.8977,VALID,53,VALID,0,
2008-02-22, 03:26:00,VALID,917.119,VALID,0,VALID,100,VALID,-0.0169808,VALID,17.9176,VALID,53,VALID,0,
2008-02-22, 03:27:00,VALID,917.105,VALID,0,VALID,100,VALID,-0.0169808,VALID,17.9463,VALID,53,VALID,0,
2008-02-22, 03:28:00,VALID,917.086,VALID,0,VALID,100,VALID,-0.0849042,VALID,17.9472,VALID,53,VALID,0,
2008-02-22, 03:29:00,VALID,917.077,VALID,0,VALID,100,VALID,-0.0849042,VALID,17.9178,VALID,53,VALID,0,
2008-02-22, 03:30:00,VALID,917.063,VALID,0,VALID,100,VALID,-0.101885,VALID,17.9083,VALID,53,VALID,0,
2008-02-22, 03:31:00,VALID,917.061,VALID,0,VALID,100,VALID,-0.0679233,VALID,17.9018,VALID,53,VALID,0,
2008-02-22, 03:32:00,VALID,917.061,VALID,0,VALID,100,VALID,-0.0339617,VALID,17.8886,VALID,53,VALID,0,
2008-02-22, 03:33:00,VALID,917.048,VALID,0,VALID,100,VALID,-0.0849042,VALID,17.8949,VALID,53,VALID,0,
2008-02-22, 03:34:00,VALID,917.036,VALID,0,VALID,100,VALID,-0.0169808,VALID,17.8914,VALID,55,VALID,0,
2008-02-22, 03:35:00,VALID,917.03,VALID,0,VALID,100,VALID,-0.0339617,VALID,17.8949,VALID,68,VALID,0.442336,
2008-02-22, 03:36:00,VALID,917.02,VALID,0,VALID,100,VALID,-0.0849042,VALID,17.8954,VALID,68,VALID,0.740371,
2008-02-22, 03:37:00,VALID,917.012,VALID,0,VALID,100,VALID,-0.0509425,VALID,17.8947,VALID,57,VALID,0.776163,
2008-02-22, 03:38:00,VALID,917.005,VALID,0,VALID,100,VALID,-0.0849042,VALID,17.9049,VALID,47,VALID,0.670455,
2008-02-22, 03:39:00,VALID,917,VALID,0,VALID,100,VALID,-0.0509425,VALID,17.9012,VALID,48,VALID,0.480664,
2008-02-22, 03:40:00,VALID,916.996,VALID,0,VALID,100,VALID,-0.0509425,VALID,17.9076,VALID,51,VALID,0.0272529,
2008-02-22, 03:41:00,VALID,916.983,VALID,0,VALID,100,VALID,-0.0679233,VALID,17.9042,VALID,51,VALID,0,
2008-02-22, 03:42:00,VALID,916.988,VALID,0,VALID,100,VALID,-0.0339617,VALID,17.8979,VALID,51,VALID,0,
2008-02-22, 03:43:00,VALID,916.973,VALID,0,VALID,100,VALID,-0.0679233,VALID,17.8947,VALID,51,VALID,0,
2008-02-22, 03:44:00,VALID,916.978,VALID,0,VALID,100,VALID,-0.0679233,VALID,17.9076,VALID,51,VALID,0,
2008-02-22, 03:45:00,VALID,916.972,VALID,0,VALID,100,VALID,-0.0509425,VALID,17.9241,VALID,51,VALID,0,
2008-02-22, 03:46:00,VALID,916.96,VALID,0,VALID,100,VALID,-0.0339617,VALID,17.9271,VALID,51,VALID,0,
2008-02-22, 03:47:00,VALID,916.963,VALID,0,VALID,100,VALID,-0.0339617,VALID,17.9463,VALID,51,VALID,0,
2008-02-22, 03:48:00,VALID,916.964,VALID,0,VALID,100,VALID,-0.0169808,VALID,17.9368,VALID,51,VALID,0,
2008-02-22, 03:49:00,VALID,916.975,VALID,0,VALID,100,VALID,0,VALID,17.9336,VALID,51,VALID,0,